Regional Weather Roundup
Issued by NWS

Home | Current Version | Previous Version | Text Only | Print | Product List | Glossary On
Versions: 1 2 3 4 5 6 7 8 9 10 11 12 13 14 15 16 17 18 19 20 21 22 23 24 25 26 27 28 29 30 31 32 33 34 35 36 37 38 39 40 41 42 43 44 45 46 47 48 49 50
000
ASUS43 KOAX 011710
RWRNE

WEATHER ROUNDUP FOR NEBRASKA
NATIONAL WEATHER SERVICE OMAHA NE
1200 PM CDT WED JUL 01 2015

NOTES: SATELLITE DATA IS BEING USED TO AUGMENT CLOUD COVER ABOVE
       12000 FEET.
       "FAIR" INDICATES FEW OR NO CLOUDS BELOW 12,000 FEET WITH NO
       SIGNIFICANT WEATHER AND/OR OBSTRUCTIONS TO VISIBILITY.

  * THESE STATIONS DO NOT REPORT WEATHER SUCH AS RAIN...SNOW OR FOG.

NEZ001>004-019>022-054>056-011800-
NEBRASKA PANHANDLE

CITY           SKY/WX    TMP DP  RH WIND       PRES   REMARKS
SCOTTSBLUFF    SUNNY     89  60  37 NW8       30.04F
ALLIANCE       MOSUNNY   86  58  38 N16       30.03R
CHADRON        MOSUNNY   87  60  40 VRB6      30.00S
KIMBALL          N/A    N/A N/A N/A MISG        N/A
SIDNEY         SUNNY     87  57  35 N13       30.07S
$$

NEZ057>060-069>072-079>082-011800-
SOUTHWEST NEBRASKA

CITY           SKY/WX    TMP DP  RH WIND       PRES   REMARKS
NORTH PLATTE   SUNNY     91  64  40 VRB7      29.93R HX  92
IMPERIAL       SUNNY     91  60  35 NE13      29.97R HX  90
LEXINGTON      SUNNY     83  67  59 NE10      29.92R
MCCOOK         SUNNY     91  63  39 N10       29.91R HX  92
OGALLALA       MOSUNNY   85  66  52 NW5       29.98R
$$

NEZ005>010-023>029-035>040-094-011800-
NORTH CENTRAL NEBRASKA

CITY           SKY/WX    TMP DP  RH WIND       PRES   REMARKS
VALENTINE      MOSUNNY   81  68  64 N12       29.93R
AINSWORTH      SUNNY     80  68  68 E5        29.94R
BROKEN BOW     SUNNY     81  69  67 N8        29.92R
O`NEILL        CLOUDY    73  67  82 SE7       29.92F
ORD            CLOUDY    72  64  76 NE7       29.91R
THEDFORD       SUNNY     86  66  51 N14       29.95S
$$

NEZ041-046>049-061>064-073>077-083>087-011800-
SOUTH CENTRAL NEBRASKA

CITY           SKY/WX    TMP DP  RH WIND       PRES   REMARKS
GRAND ISLAND   CLOUDY    75  66  73 N10       29.90R
AURORA         MOSUNNY   76  68  77 E8        29.87S
HASTINGS       SUNNY     79  68  69 NE10      29.87S
HEBRON         MOSUNNY   81  66  60 NE9       29.83S
HOLDREGE       SUNNY     79  65  61 N13G18    29.90R
KEARNEY *      MOSUNNY   75  66  73 N12G18    29.89S
YORK           CLOUDY    77  68  73 E12       29.86F
$$

NEZ011>018-030>034-042>045-011800-
NORTHEAST NEBRASKA

CITY           SKY/WX    TMP DP  RH WIND       PRES   REMARKS
NORFOLK        PTSUNNY   77  67  71 E12       29.90R
ALBION         CLOUDY    75  65  71 E8        29.90S
BLAIR          PTSUNNY   77  66  68 NE9       29.89R
COLUMBUS *     MOSUNNY  N/A N/A N/A MISG        N/A
FREMONT        SUNNY     80  67  64 E10       29.89R
TEKAMAH        PTSUNNY   77  70  79 NE13      29.89F
WAYNE          MOSUNNY   77  68  74 SE8       29.90F
$$

NEZ050>053-065>068-078-088>093-011800-
SOUTHEAST NEBRASKA

CITY           SKY/WX    TMP DP  RH WIND       PRES   REMARKS
LINCOLN        PTSUNNY   79  68  69 E9        29.86R
OMAHA EPPLEY   MOSUNNY   80  68  66 SE9       29.88R
BEATRICE       MOSUNNY   79  71  76 E10G16    29.84R
FALLS CITY     PTSUNNY   79  71  76 E15       29.84F
NEBRASKA CITY  SUNNY     79  68  68 E8        29.85F
PLATTSMOUTH    MOSUNNY   79  69  73 E12       29.86S
$$

NEZ044-045-051>053-067-011800-
OMAHA AREA

CITY           SKY/WX    TMP DP  RH WIND       PRES   REMARKS
OMAHA EPPLEY   MOSUNNY   80  68  66 SE9       29.88R
BLAIR          PTSUNNY   77  66  68 NE9       29.89R
FREMONT        SUNNY     80  67  64 E10       29.89R
MILLARD        MOSUNNY   78  69  73 E7        29.87R
OFFUTT AFB     MOSUNNY   79  70  74 E9        29.86R
PLATTSMOUTH    MOSUNNY   79  69  73 E12       29.86S
WAHOO          FAIR      80  68  66 E8        29.87R
$$



USA.gov is the U.S. government's official web portal to all federal, state and local government web resources and services.